| time (UTC) | temp F | wind direction | speed knots | gust knots | rain 1hr in | rain 24hr in | rain mn in | humidity % | barometer mb |
| 20260505004049 | 64 | 0 | 0.0 | 0.0 | 0.00 | 0.00 | 0.00 | 57 | 1009.7 |
| 20260505003550 | 64 | 0 | 0.0 | 0.0 | 0.00 | 0.00 | 0.00 | 56 | 1009.7 |
| 20260505003054 | 65 | 0 | 0.0 | 0.0 | 0.00 | 0.00 | 0.00 | 55 | 1009.7 |
| 20260505002550 | 65 | 0 | 0.0 | 0.9 | 0.00 | 0.00 | 0.00 | 54 | 1009.7 |
| 20260505002050 | 66 | 0 | 0.0 | 0.9 | 0.00 | 0.00 | 0.00 | 53 | 1009.7 |
| 20260505001555 | 66 | 330 | 0.0 | 0.9 | 0.00 | 0.00 | 0.00 | 53 | 1009.7 |
| 20260505001050 | 66 | 0 | 0.0 | 2.6 | 0.00 | 0.00 | 0.00 | 52 | 1009.6 |
| 20260505000549 | 66 | 0 | 0.0 | 3.5 | 0.00 | 0.00 | 0.00 | 52 | 1009.5 |
| 20260505000107 | 67 | 311 | 0.0 | 3.5 | 0.00 | 0.00 | 0.00 | 51 | 1009.5 |
| 20260504235550 | 67 | 0 | 0.0 | 2.6 | 0.00 | 0.00 | 0.00 | 51 | 1009.5 |
| 20260504235050 | 67 | 0 | 0.0 | 3.5 | 0.00 | 0.00 | 0.00 | 51 | 1009.5 |
| 20260504234550 | 68 | 331 | 0.0 | 5.2 | 0.00 | 0.00 | 0.00 | 50 | 1009.5 |
| 20260504234049 | 68 | 320 | 1.7 | 5.2 | 0.00 | 0.00 | 0.00 | 50 | 1009.5 |
| 20260504233550 | 68 | 179 | 0.0 | 5.2 | 0.00 | 0.00 | 0.00 | 50 | 1009.5 |
| 20260504233056 | 69 | 182 | 0.0 | 4.3 | 0.00 | 0.00 | 0.00 | 49 | 1009.5 |
| 20260504232550 | 69 | 337 | 0.0 | 2.6 | 0.00 | 0.00 | 0.00 | 49 | 1009.5 |
| 20260504232049 | 69 | 105 | 0.0 | 5.2 | 0.00 | 0.00 | 0.00 | 48 | 1009.5 |
| 20260504231554 | 70 | 310 | 0.9 | 6.1 | 0.00 | 0.00 | 0.00 | 48 | 1009.4 |
| 20260504231050 | 70 | 149 | 1.7 | 6.1 | 0.00 | 0.00 | 0.00 | 48 | 1009.5 |
| 20260504230551 | 70 | 30 | 0.9 | 3.5 | 0.00 | 0.00 | 0.00 | 47 | 1009.6 |
| 20260504230106 | 70 | 324 | 0.0 | 3.5 | 0.00 | 0.00 | 0.00 | 46 | 1009.6 |
| 20260504225549 | 71 | 281 | 0.9 | 5.2 | 0.00 | 0.00 | 0.00 | 46 | 1009.5 |
| 20260504225049 | 71 | 89 | 1.7 | 5.2 | 0.00 | 0.00 | 0.00 | 46 | 1009.4 |
| 20260504224555 | 71 | 210 | 0.9 | 5.2 | 0.00 | 0.00 | 0.00 | 45 | 1009.5 |
| 20260504224051 | 72 | 250 | 0.0 | 2.6 | 0.00 | 0.00 | 0.00 | 46 | 1009.4 |
| 20260504223550 | 72 | 293 | 0.0 | 1.7 | 0.00 | 0.00 | 0.00 | 45 | 1009.3 |
| 20260504223103 | 72 | 0 | 0.0 | 7.0 | 0.00 | 0.00 | 0.00 | 45 | 1009.3 |
| 20260504222549 | 73 | 293 | 0.0 | 7.0 | 0.00 | 0.00 | 0.00 | 42 | 1009.2 |
| 20260504222050 | 73 | 146 | 1.7 | 7.8 | 0.00 | 0.00 | 0.00 | 39 | 1009.3 |
| 20260504221603 | 74 | 292 | 2.6 | 7.8 | 0.00 | 0.00 | 0.00 | 39 | 1009.3 |
| 20260504221049 | 75 | 73 | 2.6 | 8.7 | 0.00 | 0.00 | 0.00 | 38 | 1009.3 |
| 20260504220551 | 76 | 152 | 0.9 | 8.7 | 0.00 | 0.00 | 0.00 | 39 | 1009.3 |
| 20260504220100 | 76 | 19 | 2.6 | 8.7 | 0.00 | 0.00 | 0.00 | 38 | 1009.2 |
| 20260504215553 | 76 | 0 | 0.9 | 9.6 | 0.00 | 0.00 | 0.00 | 38 | 1009.3 |
| 20260504215053 | 76 | 150 | 1.7 | 9.6 | 0.00 | 0.00 | 0.00 | 38 | 1009.3 |
| 20260504214558 | 76 | 314 | 0.9 | 5.2 | 0.00 | 0.00 | 0.00 | 38 | 1009.5 |
| 20260504214050 | 76 | 306 | 1.7 | 5.2 | 0.00 | 0.00 | 0.00 | 38 | 1009.4 |
| 20260504213550 | 76 | 158 | 0.0 | 7.0 | 0.00 | 0.00 | 0.00 | 40 | 1009.4 |
| 20260504213053 | 76 | 0 | 1.7 | 7.8 | 0.00 | 0.00 | 0.00 | 39 | 1009.4 |
| 20260504212550 | 76 | 297 | 1.7 | 7.8 | 0.00 | 0.00 | 0.00 | 39 | 1009.5 |
| 20260504212053 | 76 | 298 | 2.6 | 7.8 | 0.00 | 0.00 | 0.00 | 39 | 1009.6 |
| 20260504211553 | 76 | 286 | 2.6 | 7.0 | 0.00 | 0.00 | 0.00 | 37 | 1009.6 |
| 20260504211049 | 76 | 296 | 1.7 | 7.8 | 0.00 | 0.00 | 0.00 | 39 | 1009.6 |
| 20260504210549 | 76 | 111 | 1.7 | 7.8 | 0.00 | 0.00 | 0.00 | 39 | 1009.4 |
| 20260504210056 | 76 | 127 | 0.9 | 7.8 | 0.00 | 0.00 | 0.00 | 41 | 1009.5 |
| 20260504205550 | 76 | 106 | 2.6 | 7.8 | 0.00 | 0.00 | 0.00 | 38 | 1009.4 |
| 20260504205049 | 76 | 318 | 1.7 | 6.1 | 0.00 | 0.00 | 0.00 | 38 | 1009.4 |
| 20260504204600 | 76 | 263 | 0.9 | 9.6 | 0.00 | 0.00 | 0.00 | 39 | 1009.5 |
| 20260504204049 | 76 | 322 | 1.7 | 9.6 | 0.00 | 0.00 | 0.00 | 38 | 1009.5 |
| 20260504203551 | 75 | 314 | 1.7 | 6.1 | 0.00 | 0.00 | 0.00 | 41 | 1009.6 |
| 20260504203102 | 75 | 193 | 1.7 | 9.6 | 0.00 | 0.00 | 0.00 | 39 | 1009.7 |
| 20260504202549 | 75 | 128 | 2.6 | 9.6 | 0.00 | 0.00 | 0.00 | 40 | 1009.6 |
| 20260504202049 | 76 | 140 | 1.7 | 6.1 | 0.00 | 0.00 | 0.00 | 39 | 1009.8 |
| 20260504201601 | 75 | 301 | 1.7 | 7.0 | 0.00 | 0.00 | 0.00 | 39 | 1009.6 |
| 20260504201052 | 75 | 303 | 0.9 | 8.7 | 0.00 | 0.00 | 0.00 | 39 | 1009.9 |
| 20260504200550 | 75 | 167 | 1.7 | 8.7 | 0.00 | 0.00 | 0.00 | 38 | 1010.0 |
| 20260504200054 | 75 | 274 | 2.6 | 8.7 | 0.00 | 0.00 | 0.00 | 38 | 1010.0 |
| 20260504195549 | 75 | 88 | 1.7 | 8.7 | 0.00 | 0.00 | 0.00 | 38 | 1010.0 |
| 20260504195049 | 75 | 294 | 2.6 | 8.7 | 0.00 | 0.00 | 0.00 | 40 | 1010.3 |
| 20260504194553 | 76 | 140 | 1.7 | 7.0 | 0.00 | 0.00 | 0.00 | 39 | 1010.3 |
| 20260504194050 | 75 | 148 | 1.7 | 7.0 | 0.00 | 0.00 | 0.00 | 38 | 1010.3 |
| 20260504193550 | 75 | 333 | 1.7 | 7.8 | 0.00 | 0.00 | 0.00 | 38 | 1010.3 |
| 20260504193056 | 75 | 95 | 2.6 | 7.8 | 0.00 | 0.00 | 0.00 | 38 | 1010.5 |
| 20260504192549 | 75 | 298 | 1.7 | 7.8 | 0.00 | 0.00 | 0.00 | 41 | 1010.6 |
| 20260504192052 | 74 | 6 | 2.6 | 10.4 | 0.00 | 0.00 | 0.00 | 39 | 1010.7 |
| 20260504191602 | 75 | 293 | 1.7 | 10.4 | 0.00 | 0.00 | 0.00 | 38 | 1010.7 |
| 20260504191049 | 75 | 317 | 1.7 | 9.6 | 0.00 | 0.00 | 0.00 | 40 | 1010.7 |
| 20260504190549 | 75 | 254 | 1.7 | 8.7 | 0.00 | 0.00 | 0.00 | 38 | 1010.8 |
| 20260504190112 | 75 | 240 | 1.7 | 8.7 | 0.00 | 0.00 | 0.00 | 40 | 1010.9 |
| 20260504185549 | 75 | 321 | 2.6 | 6.1 | 0.00 | 0.00 | 0.00 | 37 | 1011.0 |
| 20260504185049 | 75 | 343 | 1.7 | 6.1 | 0.00 | 0.00 | 0.00 | 40 | 1011.1 |
| 20260504184557 | 74 | 317 | 0.9 | 9.6 | 0.00 | 0.00 | 0.00 | 37 | 1011.1 |
| 20260504184050 | 74 | 328 | 1.7 | 10.4 | 0.00 | 0.00 | 0.00 | 41 | 1011.2 |
| 20260504183550 | 74 | 185 | 4.3 | 10.4 | 0.00 | 0.00 | 0.00 | 38 | 1011.3 |
| 20260504183105 | 74 | 219 | 1.7 | 8.7 | 0.00 | 0.00 | 0.00 | 37 | 1011.3 |
| 20260504182551 | 73 | 289 | 1.7 | 11.3 | 0.00 | 0.00 | 0.00 | 41 | 1011.4 |
| 20260504182052 | 73 | 155 | 4.3 | 11.3 | 0.00 | 0.00 | 0.00 | 36 | 1011.4 |
| 20260504181558 | 74 | 300 | 2.6 | 9.6 | 0.00 | 0.00 | 0.00 | 37 | 1011.5 |
| 20260504181049 | 74 | 332 | 1.7 | 6.1 | 0.00 | 0.00 | 0.00 | 38 | 1011.4 |
| 20260504180550 | 74 | 311 | 2.6 | 6.1 | 0.00 | 0.00 | 0.00 | 37 | 1011.5 |
| 20260504180112 | 74 | 291 | 0.9 | 5.2 | 0.00 | 0.00 | 0.00 | 38 | 1011.6 |
| 20260504175552 | 74 | 0 | 0.9 | 3.5 | 0.00 | 0.00 | 0.00 | 36 | 1011.7 |
| 20260504175050 | 74 | 303 | 0.0 | 4.3 | 0.00 | 0.00 | 0.00 | 41 | 1011.7 |
| 20260504174557 | 74 | 283 | 0.0 | 8.7 | 0.00 | 0.00 | 0.00 | 41 | 1011.8 |
| 20260504174049 | 73 | 303 | 2.6 | 8.7 | 0.00 | 0.00 | 0.00 | 41 | 1011.8 |
| 20260504173550 | 72 | 177 | 0.9 | 7.0 | 0.00 | 0.00 | 0.00 | 42 | 1011.9 |
| 20260504173057 | 72 | 233 | 2.6 | 7.0 | 0.00 | 0.00 | 0.00 | 38 | 1012.0 |
| 20260504172549 | 73 | 86 | 2.6 | 7.8 | 0.00 | 0.00 | 0.00 | 38 | 1012.1 |
| 20260504172049 | 73 | 309 | 1.7 | 7.8 | 0.00 | 0.00 | 0.00 | 41 | 1012.1 |
| 20260504171553 | 72 | 0 | 2.6 | 8.7 | 0.00 | 0.00 | 0.00 | 40 | 1012.1 |
| 20260504171053 | 72 | 101 | 1.7 | 8.7 | 0.00 | 0.00 | 0.00 | 39 | 1012.2 |
| 20260504170550 | 72 | 300 | 2.6 | 8.7 | 0.00 | 0.00 | 0.00 | 41 | 1012.3 |
| 20260504151050 | 69 | 160 | 1.7 | 7.0 | 0.00 | 0.00 | 0.00 | 41 | 1013.5 |
| 20260504150550 | 69 | 285 | 0.9 | 5.2 | 0.00 | 0.00 | 0.00 | 42 | 1013.7 |
| 20260504141050 | 63 | 0 | 0.0 | 5.2 | 0.00 | 0.00 | 0.00 | 51 | 1013.8 |
| 20260504140552 | 62 | 282 | 0.0 | 3.5 | 0.00 | 0.00 | 0.00 | 52 | 1013.9 |
| 20260504130549 | 56 | 101 | 1.7 | 5.2 | 0.00 | 0.00 | 0.00 | 59 | 1014.1 |
| 20260504110549 | 44 | 0 | 0.0 | 0.9 | 0.00 | 0.00 | 0.00 | 81 | 1014.8 |
| 20260504100550 | 42 | 0 | 0.0 | 0.0 | 0.00 | 0.00 | 0.00 | 86 | 1014.7 |
| 20260504081556 | 40 | 0 | 0.0 | 0.0 | 0.00 | 0.00 | 0.00 | 86 | 1015.2 |
| 20260504081050 | 39 | 0 | 0.0 | 0.0 | 0.00 | 0.00 | 0.00 | 86 | 1015.2 |
| 20260504080550 | 39 | 0 | 0.0 | 0.0 | 0.00 | 0.00 | 0.00 | 86 | 1015.2 |
| 20260504050550 | 39 | 0 | 0.0 | 0.0 | 0.00 | 0.00 | 0.00 | 83 | 1015.4 |
| 20260504045549 | 39 | 0 | 0.0 | 0.0 | 0.00 | 0.00 | 0.00 | 82 | 1015.4 |
| 20260504045051 | 40 | 0 | 0.0 | 0.0 | 0.00 | 0.00 | 0.00 | 82 | 1015.5 |
| 20260504044600 | 40 | 0 | 0.0 | 0.0 | 0.00 | 0.00 | 0.00 | 82 | 1015.4 |
| 20260504044050 | 40 | 0 | 0.0 | 0.0 | 0.00 | 0.00 | 0.00 | 82 | 1015.5 |
| 20260504043550 | 40 | 0 | 0.0 | 0.0 | 0.00 | 0.00 | 0.00 | 82 | 1015.5 |
| 20260504043055 | 40 | 0 | 0.0 | 0.0 | 0.00 | 0.00 | 0.00 | 81 | 1015.4 |
| 20260504042549 | 40 | 0 | 0.0 | 0.0 | 0.00 | 0.00 | 0.00 | 81 | 1015.4 |
| 20260504042050 | 40 | 0 | 0.0 | 0.0 | 0.00 | 0.00 | 0.00 | 81 | 1015.4 |
| 20260504041555 | 41 | 0 | 0.0 | 0.0 | 0.00 | 0.00 | 0.00 | 80 | 1015.4 |
| 20260504041049 | 41 | 0 | 0.0 | 0.9 | 0.00 | 0.00 | 0.00 | 80 | 1015.3 |
| 20260504040551 | 41 | 0 | 0.0 | 0.9 | 0.00 | 0.00 | 0.00 | 80 | 1015.2 |
| 20260504040053 | 41 | 0 | 0.0 | 0.9 | 0.00 | 0.00 | 0.00 | 80 | 1015.1 |
| 20260504035550 | 41 | 0 | 0.0 | 0.0 | 0.00 | 0.00 | 0.00 | 80 | 1014.9 |
| 20260504035050 | 41 | 0 | 0.0 | 0.0 | 0.00 | 0.00 | 0.00 | 79 | 1014.9 |
| 20260504034553 | 41 | 0 | 0.0 | 0.0 | 0.00 | 0.00 | 0.00 | 78 | 1015.1 |
| 20260504034054 | 41 | 0 | 0.0 | 0.0 | 0.00 | 0.00 | 0.00 | 78 | 1015.1 |
| 20260504033550 | 41 | 0 | 0.0 | 0.0 | 0.00 | 0.00 | 0.00 | 78 | 1015.0 |
| 20260504033051 | 42 | 0 | 0.0 | 0.0 | 0.00 | 0.00 | 0.00 | 77 | 1014.9 |
| 20260504032550 | 42 | 0 | 0.0 | 0.0 | 0.00 | 0.00 | 0.00 | 77 | 1014.9 |
| 20260504032050 | 42 | 0 | 0.0 | 0.0 | 0.00 | 0.00 | 0.00 | 76 | 1015.0 |
| 20260504031550 | 42 | 0 | 0.0 | 0.0 | 0.00 | 0.00 | 0.00 | 76 | 1014.9 |
| 20260504031049 | 42 | 0 | 0.0 | 0.0 | 0.00 | 0.00 | 0.00 | 76 | 1014.7 |
| 20260504030550 | 42 | 0 | 0.0 | 0.0 | 0.00 | 0.00 | 0.00 | 76 | 1014.7 |
| 20260504030053 | 43 | 0 | 0.0 | 0.0 | 0.00 | 0.00 | 0.00 | 75 | 1014.8 |
| 20260504025551 | 43 | 0 | 0.0 | 0.0 | 0.00 | 0.00 | 0.00 | 74 | 1014.8 |
| 20260504025051 | 43 | 0 | 0.0 | 0.0 | 0.00 | 0.00 | 0.00 | 73 | 1014.9 |
| 20260504024602 | 43 | 0 | 0.0 | 0.0 | 0.00 | 0.00 | 0.00 | 73 | 1014.7 |
| 20260504024049 | 44 | 0 | 0.0 | 0.0 | 0.00 | 0.00 | 0.00 | 73 | 1014.6 |
| 20260504023550 | 44 | 0 | 0.0 | 0.0 | 0.00 | 0.00 | 0.00 | 72 | 1014.7 |
| 20260504023053 | 44 | 0 | 0.0 | 0.0 | 0.00 | 0.00 | 0.00 | 72 | 1014.7 |
| 20260504022550 | 44 | 0 | 0.0 | 0.0 | 0.00 | 0.00 | 0.00 | 70 | 1014.6 |
| 20260504022052 | 44 | 0 | 0.0 | 0.0 | 0.00 | 0.00 | 0.00 | 70 | 1014.6 |
| 20260504021550 | 45 | 0 | 0.0 | 0.0 | 0.00 | 0.00 | 0.00 | 70 | 1014.6 |
| 20260504021050 | 45 | 0 | 0.0 | 0.0 | 0.00 | 0.00 | 0.00 | 69 | 1014.5 |
| 20260504020551 | 45 | 0 | 0.0 | 0.0 | 0.00 | 0.00 | 0.00 | 68 | 1014.6 |
| 20260504020057 | 45 | 0 | 0.0 | 0.0 | 0.00 | 0.00 | 0.00 | 66 | 1014.6 |
| 20260504015550 | 46 | 0 | 0.0 | 0.0 | 0.00 | 0.00 | 0.00 | 65 | 1014.7 |
| 20260504015050 | 46 | 0 | 0.0 | 0.0 | 0.00 | 0.00 | 0.00 | 65 | 1014.6 |
| 20260504014601 | 46 | 0 | 0.0 | 0.0 | 0.00 | 0.00 | 0.00 | 64 | 1014.6 |
| 20260504014049 | 47 | 0 | 0.0 | 0.0 | 0.00 | 0.00 | 0.00 | 63 | 1014.6 |
| 20260504013549 | 47 | 0 | 0.0 | 0.0 | 0.00 | 0.00 | 0.00 | 64 | 1014.5 |
| 20260504013056 | 47 | 0 | 0.0 | 0.9 | 0.00 | 0.00 | 0.00 | 64 | 1014.5 |
| 20260504012552 | 47 | 0 | 0.0 | 0.9 | 0.00 | 0.00 | 0.00 | 63 | 1014.5 |
| 20260504012051 | 47 | 0 | 0.0 | 0.0 | 0.00 | 0.00 | 0.00 | 62 | 1014.5 |
| 20260504011551 | 48 | 0 | 0.0 | 0.0 | 0.00 | 0.00 | 0.00 | 60 | 1014.4 |
| 20260504011050 | 48 | 0 | 0.0 | 0.0 | 0.00 | 0.00 | 0.00 | 59 | 1014.3 |
| 20260504010550 | 49 | 0 | 0.0 | 0.0 | 0.00 | 0.00 | 0.00 | 58 | 1014.3 |
| 20260504010057 | 49 | 0 | 0.0 | 0.0 | 0.00 | 0.00 | 0.00 | 58 | 1014.2 |
| 20260504005550 | 50 | 0 | 0.0 | 0.0 | 0.00 | 0.00 | 0.00 | 57 | 1014.1 |
| 20260504005050 | 50 | 0 | 0.0 | 0.0 | 0.00 | 0.00 | 0.00 | 56 | 1014.2 |
| 20260504004550 | 51 | 0 | 0.0 | 0.0 | 0.00 | 0.00 | 0.00 | 54 | 1014.1 |